Location: ?????
(55.8833°N, 37.6500°E)
Time: 21:43:50
(UTC+00:00)

GP-B - Pass Details

Date: 27 February 2020
Orbit: 631 x 636 km, 89.8° (Epoch: 05 April)

Event Time Altitude Azimuth Distance (km) Brightness Sun altitude
Exits shadow 17:24:05 57° 102° (ESE) 758 3.1 -21.0°
Maximum altitude 17:24:23 58° 83° (E) 747 3.1 -21.1°
Drops below altitude 10° 17:28:47 10° 5° (N) 2,038 5.8 -21.7°
Sets 17:31:02 0° 2° (N) 2,951 6.8 -22.0°
